Thursday, November 23, 2017, 7:18 PM EST
Back to Local

KFRG, Farmingdale Republic Airport

Location: Farmingdale, NY, United States Lat: 40.733
Local Time: 7:18 PM EST ( 0:18 GMT) Lon: -73.417
Time Zone: US/Eastern Elev: 82 ft

Show me the last for .
Show Coded

Time T Td Feel RH Dir Speed Gust Alt SLP Vis Weather Sky Remarks
2017-11-23 18:53 36 23 - 58 - Calm - 30.03 30.03 10 CLR 6-hr Min Temp (7pm): 35.1°F
6-hr Max Temp (7pm): 43.0°F
2017-11-23 17:53 36 22 - 56 - Calm - 30.02 30.02 10 CLR None
2017-11-23 16:53 40 18 - 40 - Calm - 30.02 30.02 10 CLR None
2017-11-23 15:53 41 18 38 38 Variable 5 - 30.02 30.02 10 CLR None
2017-11-23 14:53 41 19 39 40 Variable 3 - 30.02 30.02 10 CLR None
2017-11-23 13:53 42 20 37 40 350° 8 - 30.02 30.02 10 CLR None
2017-11-23 12:53 41 21 36 44 360° 7 - 30.05 30.05 10 CLR 6-hr Min Temp (1pm): 28.9°F
6-hr Max Temp (1pm): 42.1°F
2017-11-23 11:53 39 21 33 48 290° 9 - 30.06 30.06 10 CLR None
2017-11-23 10:53 39 21 33 48 320° 9 - 30.09 30.09 10 CLR None
2017-11-23 09:53 37 21 30 51 330° 10 - 30.11 30.11 10 CLR None
2017-11-23 08:53 36 21 28 54 340° 10 - 30.12 30.12 10 CLR None
2017-11-23 07:53 32 22 - 65 - Calm - 30.11 30.11 10 CLR None
2017-11-23 06:53 29 21 24 71 230° 5 - 30.10 30.10 10 CLR 24-hr Precip Total (7am): 0.26"
6-hr Min Temp (7am): 28.9°F
6-hr Max Temp (7am): 35.1°F
2017-11-23 05:53 31 21 27 66 320° 3 - 30.08 30.08 10 CLR None
2017-11-23 04:53 32 21 26 63 320° 6 - 30.07 30.07 10 CLR None
2017-11-23 03:53 32 21 26 63 310° 6 - 30.07 30.07 10 CLR None
2017-11-23 02:53 33 21 27 60 320° 7 - 30.07 30.07 10 CLR None
2017-11-23 01:53 33 22 26 63 300° 8 - 30.07 30.07 10 CLR None
2017-11-23 00:53 35 23 29 61 300° 7 - 30.06 30.06 10 CLR 6-hr Min Temp (1am): 35.1°F
6-hr Max Temp (1am): 42.1°F
2017-11-22 23:53 36 23 30 58 320° 7 - 30.06 30.06 10 CLR 24-hr Min Temp (12am): 36.0°F
24-hr Max Temp (12am): 55.0°F
2017-11-22 22:53 37 24 32 59 310° 7 - 30.06 30.06 10 CLR None
2017-11-22 21:53 38 25 31 59 320° 10 - 30.04 30.04 10 CLR None
2017-11-22 20:53 39 25 30 56 320° 7 17 30.03 30.03 10 CLR None
2017-11-22 19:53 40 26 30 57 320° 12 22 30.00 30.00 10 CLR None

Support USWX by starting your Amazon purchase here.